Centralia, IL

12:50 AM CST on November 18, 2017 (GMT -0600)
Centralia Municipal

Weather History for KENL - April, 2014

Change the Weather History Date:

Saturday, April 12, 2014

  Actual Average (KSLO) Record (KSLO)
Temperature  
Mean Temperature 64 °F -  
Max Temperature 76 °F 67 °F 86 °F (1971)
Min Temperature 51 °F 43 °F 24 °F (1990)
Degree Days  
Heating Degree Days 1    
Growing Degree Days 14 (Base 50)    
Moisture  
Dew Point 53 °F    
Average Humidity 63    
Maximum Humidity 88    
Minimum Humidity 44    
Precipitation  
Precipitation 0.00 in - - ()
Sea Level Pressure  
Sea Level Pressure 29.92 in    
Wind  
Wind Speed 13 mph (South)    
Max Wind Speed 29 mph    
Max Gust Speed 37 mph    
Visibility 10 miles    
Events      
Averages and records for this station are not official NWS values.
T = Trace of Precipitation, MM = Missing Value Source: NWS Daily Summary

Daily Weather History Graph

Daily Weather History Graph

Search for Another Location

Airport or City:

Trip Planner

Search our weather history database for the weather conditions in past years. The results will help you decide how hot, cold, wet, or windy it might be!

Date:

Astronomy

Apr. 12, 2014 Rise Set
Actual Time 6:24 AM CDT 7:30 PM CDT
Civil Twilight 5:57 AM CDT 7:57 PM CDT
Nautical Twilight 5:25 AM CDT 8:29 PM CDT
Astronomical Twilight 4:51 AM CDT 9:03 PM CDT
Moon 5:10 PM CDT (4/12) 4:49 AM CDT (4/12)
Length of Visible Light 13h 59m
Length of Day
13h 05m
Waxing Gibbous, 93% of the Moon is Illuminated
Apr 12
Waxing Gibbous
Apr 15
Full
Apr 22
Last Quarter
Apr 29
New
May 6
First Quarter

Hourly Weather History & Observations

Time (CDT) Temp. Dew Point Humidity Pressure Visibility Wind Dir Wind Speed Gust Speed Precip Events Conditions
12:15 AM 53.6 °F 41.0 °F 62% 30.05 in 10.0 mi SE 5.8 mph - N/A   Unknown
12:35 AM 51.6 °F 40.3 °F 65% 30.05 in 10.0 mi SE 6.9 mph - N/A   Unknown
12:55 AM 54.9 °F 40.1 °F 58% 30.04 in 10.0 mi Calm Calm - N/A   Unknown
1:15 AM 54.5 °F 41.2 °F 61% 30.04 in 10.0 mi SE 4.6 mph - N/A   Unknown
1:35 AM 54.3 °F 42.3 °F 64% 30.05 in 10.0 mi SE 5.8 mph - N/A   Unknown
1:38 AM 55.4 °F 42.8 °F 63% 30.04 in 10.0 mi SE 6.9 mph - N/A   Unknown
1:55 AM 53.6 °F 45.3 °F 74% 30.04 in 10.0 mi SSE 6.9 mph - N/A   Unknown
2:03 AM 55.4 °F 46.4 °F 72% 30.03 in 10.0 mi SSE 9.2 mph - N/A   Unknown
2:15 AM 55.6 °F 48.6 °F 77% 30.03 in 10.0 mi SSE 8.1 mph - N/A   Unknown
2:21 AM 55.4 °F 48.2 °F 77% 30.03 in 10.0 mi SSE 6.9 mph - N/A   Unknown
2:35 AM 56.1 °F 49.5 °F 78% 30.03 in 10.0 mi SSE 8.1 mph - N/A   Unknown
2:41 AM 55.4 °F 50.0 °F 82% 30.03 in 10.0 mi SSE 8.1 mph - N/A   Unknown
2:55 AM 56.5 °F 50.9 °F 82% 30.03 in 10.0 mi SSE 9.2 mph - N/A   Unknown
3:02 AM 57.2 °F 50.0 °F 77% 30.03 in - SSE 9.2 mph - N/A   Unknown
3:15 AM 56.7 °F 51.1 °F 82% 30.03 in - SSE 8.1 mph - N/A   Unknown
3:22 AM 57.2 °F 51.8 °F 82% 30.03 in - SSE 8.1 mph - N/A   Unknown
3:35 AM 56.3 °F 50.9 °F 82% 30.03 in - SSE 8.1 mph - N/A   Unknown
3:41 AM 55.4 °F 50.0 °F 82% 30.03 in - SSE 8.1 mph - N/A   Unknown
3:55 AM 56.1 °F 51.1 °F 83% 30.03 in - SSE 8.1 mph - N/A   Unknown
4:01 AM 55.4 °F 51.8 °F 88% 30.03 in - SSE 6.9 mph - N/A   Unknown
4:15 AM 56.1 °F 51.3 °F 84% 30.02 in - SSE 6.9 mph - N/A   Unknown
4:21 AM 55.4 °F 51.8 °F 88% 30.02 in - SE 8.1 mph - N/A   Unknown
4:35 AM 55.9 °F 51.8 °F 86% 30.02 in - SSE 8.1 mph - N/A   Unknown
4:42 AM 55.4 °F 51.8 °F 88% 30.02 in - SSE 8.1 mph - N/A   Unknown
4:55 AM 55.9 °F 51.8 °F 86% 30.02 in - SE 8.1 mph - N/A   Unknown
5:01 AM 55.4 °F 51.8 °F 88% 30.02 in 10.0 mi SE 8.1 mph - N/A   Unknown
5:15 AM 56.3 °F 51.8 °F 85% 30.02 in - SE 8.1 mph - N/A   Unknown
5:21 AM 55.4 °F 51.8 °F 88% 30.02 in - SE 8.1 mph - N/A   Unknown
5:35 AM 55.8 °F 51.8 °F 87% 30.02 in 10.0 mi SE 9.2 mph - N/A   Unknown
5:41 AM 55.4 °F 51.8 °F 88% 30.01 in 10.0 mi SE 9.2 mph - N/A   Unknown
5:55 AM 55.9 °F 51.8 °F 86% 30.01 in 10.0 mi SE 9.2 mph - N/A   Unknown
6:01 AM 55.4 °F 51.8 °F 88% 30.01 in 10.0 mi SSE 9.2 mph - N/A   Unknown
6:15 AM 55.6 °F 51.4 °F 86% 30.02 in 10.0 mi SSE 8.1 mph - N/A   Unknown
6:22 AM 55.4 °F 51.8 °F 88% 30.02 in 10.0 mi SSE 9.2 mph - N/A   Unknown
6:35 AM 55.6 °F 51.4 °F 86% 30.01 in 10.0 mi SSE 10.4 mph - N/A   Unknown
6:42 AM 55.4 °F 51.8 °F 88% 30.01 in 10.0 mi SE 10.4 mph - N/A   Unknown
6:55 AM 56.3 °F 51.8 °F 85% 30.01 in 10.0 mi SSE 10.4 mph - N/A   Unknown
7:01 AM 57.2 °F 51.8 °F 82% 30.01 in 10.0 mi SSE 10.4 mph - N/A   Unknown
7:15 AM 57.4 °F 51.8 °F 82% 30.01 in - SSE 9.2 mph - N/A   Unknown
7:21 AM 57.2 °F 51.8 °F 82% 30.01 in - SE 10.4 mph - N/A   Unknown
7:35 AM 58.1 °F 52.0 °F 80% 30.01 in - SE 9.2 mph - N/A   Unknown
7:41 AM 57.2 °F 51.8 °F 82% 30.01 in - SSE 9.2 mph - N/A   Unknown
7:55 AM 59.0 °F 52.3 °F 79% 30.01 in - SE 10.4 mph - N/A   Unknown
8:01 AM 59.0 °F 51.8 °F 77% 30.01 in - SSE 11.5 mph - N/A   Unknown
8:15 AM 61.5 °F 52.7 °F 73% 30.01 in - SSE 12.7 mph - N/A   Unknown
8:21 AM 62.6 °F 53.6 °F 72% 30.01 in - South 12.7 mph - N/A   Unknown
8:35 AM 63.0 °F 53.1 °F 70% 30.01 in - South 12.7 mph - N/A   Unknown
8:41 AM 62.6 °F 53.6 °F 72% 30.00 in - South 13.8 mph - N/A   Unknown
8:55 AM 64.0 °F 53.2 °F 68% 30.00 in - South 15.0 mph - N/A   Unknown
9:01 AM 64.4 °F 53.6 °F 68% 30.00 in - South 12.7 mph - N/A   Unknown
9:15 AM 66.2 °F 54.0 °F 65% 30.00 in - South 13.8 mph 20.7 mph N/A   Unknown
9:21 AM 66.2 °F 53.6 °F 64% 30.00 in - South 13.8 mph 20.7 mph N/A   Unknown
9:35 AM 67.6 °F 54.3 °F 62% 30.00 in - South 16.1 mph 21.9 mph N/A   Unknown
9:41 AM 68.0 °F 53.6 °F 60% 30.00 in - South 13.8 mph 21.9 mph N/A   Unknown
9:55 AM 69.1 °F 54.9 °F 60% 30.00 in - South 13.8 mph 21.9 mph N/A   Unknown
10:01 AM 69.8 °F 55.4 °F 60% 30.00 in - South 15.0 mph 21.9 mph N/A   Unknown
10:15 AM 70.2 °F 55.6 °F 60% 30.00 in - South 15.0 mph 21.9 mph N/A   Unknown
10:21 AM 69.8 °F 55.4 °F 60% 30.00 in - South 18.4 mph - N/A   Unknown
10:35 AM 70.7 °F 55.6 °F 59% 29.99 in - South 18.4 mph 24.2 mph N/A   Unknown
10:41 AM 69.8 °F 55.4 °F 60% 29.99 in - South 18.4 mph 24.2 mph N/A   Unknown
10:55 AM 72.1 °F 56.5 °F 58% 29.99 in - South 15.0 mph - N/A   Unknown
11:01 AM 73.4 °F 57.2 °F 57% 29.99 in - South 17.3 mph 21.9 mph N/A   Unknown
11:15 AM 71.6 °F 55.4 °F 57% 29.98 in - South 18.4 mph 21.9 mph N/A   Unknown
11:21 AM 73.4 °F 55.4 °F 53% 29.98 in - South 19.6 mph 23.0 mph N/A   Unknown
11:35 AM 73.6 °F 56.3 °F 55% 29.97 in - South 18.4 mph 25.3 mph N/A   Unknown
11:41 AM 73.4 °F 57.2 °F 57% 29.97 in - South 18.4 mph 25.3 mph N/A   Unknown
11:55 AM 74.5 °F 56.5 °F 53% 29.96 in - South 16.1 mph 23.0 mph N/A   Unknown
12:01 PM 75.2 °F 57.2 °F 53% 29.95 in - South 15.0 mph 24.2 mph N/A   Unknown
12:15 PM 74.8 °F 56.1 °F 52% 29.95 in - South 23.0 mph 28.8 mph N/A   Unknown
12:21 PM 73.4 °F 55.4 °F 53% 29.95 in - South 24.2 mph 27.6 mph N/A   Unknown
12:35 PM 73.4 °F 55.4 °F 53% 29.94 in - South 24.2 mph 29.9 mph N/A   Unknown
12:41 PM 75.2 °F 55.4 °F 50% 29.94 in - SSW 24.2 mph 29.9 mph N/A   Unknown
12:55 PM 74.8 °F 55.8 °F 51% 29.94 in - South 25.3 mph 28.8 mph N/A   Unknown
1:01 PM 73.4 °F 55.4 °F 53% 29.93 in - South 23.0 mph 28.8 mph N/A   Unknown
1:15 PM 74.3 °F 56.3 °F 53% 29.92 in - South 16.1 mph - N/A   Unknown
1:21 PM 73.4 °F 55.4 °F 53% 29.92 in - South 21.9 mph 29.9 mph N/A   Unknown
1:35 PM 74.1 °F 54.3 °F 50% 29.91 in - SSW 18.4 mph 31.1 mph N/A   Unknown
1:41 PM 75.2 °F 55.4 °F 50% 29.91 in - South 18.4 mph 31.1 mph N/A   Unknown
1:55 PM 75.6 °F 54.1 °F 47% 29.90 in - South 25.3 mph 29.9 mph N/A   Unknown
2:01 PM 75.2 °F 53.6 °F 47% 29.90 in - South 24.2 mph 29.9 mph N/A   Unknown
2:15 PM 75.0 °F 54.5 °F 49% 29.89 in - South 23.0 mph 31.1 mph N/A   Unknown
2:21 PM 77.0 °F 53.6 °F 44% 29.89 in - South 24.2 mph 31.1 mph N/A   Unknown
2:35 PM 75.2 °F 53.6 °F 47% 29.88 in - SSW 28.8 mph 36.8 mph N/A   Unknown
2:41 PM 75.2 °F 53.6 °F 47% 29.88 in - South 27.6 mph 36.8 mph N/A   Unknown
2:55 PM 75.7 °F 54.3 °F 47% 29.88 in - South 18.4 mph 33.4 mph N/A   Unknown
3:01 PM 75.2 °F 53.6 °F 47% 29.87 in - South 24.2 mph 29.9 mph N/A   Unknown
3:15 PM 75.2 °F 52.9 °F 46% 29.86 in - SSW 24.2 mph 33.4 mph N/A   Unknown
3:21 PM 75.2 °F 53.6 °F 47% 29.86 in - South 26.5 mph 33.4 mph N/A   Unknown
3:35 PM 74.5 °F 54.0 °F 49% 29.85 in - South 21.9 mph 31.1 mph N/A   Unknown
3:41 PM 73.4 °F 53.6 °F 50% 29.85 in - South 27.6 mph 34.5 mph N/A   Unknown
3:55 PM 73.9 °F 52.9 °F 48% 29.85 in - South 27.6 mph 36.8 mph N/A   Unknown
4:01 PM 75.2 °F 53.6 °F 47% 29.84 in - South 25.3 mph 35.7 mph N/A   Unknown
4:15 PM 75.0 °F 53.8 °F 47% 29.84 in - South 20.7 mph 29.9 mph N/A   Unknown
4:21 PM 75.2 °F 53.6 °F 47% 29.84 in - South 19.6 mph 29.9 mph N/A   Unknown
4:35 PM 74.3 °F 53.2 °F 48% 29.83 in - South 20.7 mph 32.2 mph N/A   Unknown
4:41 PM 75.2 °F 53.6 °F 47% 29.83 in - South 25.3 mph 33.4 mph N/A   Unknown
4:55 PM 73.8 °F 53.1 °F 48% 29.83 in - South 25.3 mph 31.1 mph N/A   Unknown
5:01 PM 73.4 °F 53.6 °F 50% 29.83 in - South 21.9 mph 31.1 mph N/A   Unknown
5:15 PM 73.4 °F 53.4 °F 49% 29.82 in - South 24.2 mph 32.2 mph N/A   Unknown
5:21 PM 73.4 °F 53.6 °F 50% 29.82 in - South 20.7 mph 29.9 mph N/A   Unknown
5:35 PM 72.9 °F 54.1 °F 52% 29.82 in - South 20.7 mph 34.5 mph N/A   Unknown
5:41 PM 73.4 °F 53.6 °F 50% 29.82 in - South 23.0 mph 26.5 mph N/A   Unknown
5:55 PM 72.3 °F 54.0 °F 52% 29.82 in - South 20.7 mph 27.6 mph N/A   Unknown
6:01 PM 71.6 °F 53.6 °F 53% 29.82 in - South 19.6 mph 27.6 mph N/A   Unknown
6:15 PM 72.0 °F 54.7 °F 54% 29.81 in - South 20.7 mph 29.9 mph N/A   Unknown
6:21 PM 71.6 °F 55.4 °F 57% 29.81 in - South 24.2 mph 29.9 mph N/A   Unknown
6:35 PM 71.6 °F 54.5 °F 55% 29.81 in - South 23.0 mph 32.2 mph N/A   Unknown
6:41 PM 71.6 °F 55.4 °F 57% 29.81 in - South 20.7 mph 25.3 mph N/A   Unknown
6:55 PM 70.9 °F 54.0 °F 55% 29.80 in - South 19.6 mph 31.1 mph N/A   Unknown
7:01 PM 69.8 °F 53.6 °F 56% 29.80 in - South 23.0 mph 28.8 mph N/A   Unknown
7:15 PM 70.2 °F 54.0 °F 56% 29.80 in - South 21.9 mph 27.6 mph N/A   Unknown
7:21 PM 69.8 °F 53.6 °F 56% 29.80 in - South 23.0 mph 28.8 mph N/A   Unknown
7:35 PM 69.8 °F 53.2 °F 56% 29.80 in - South 19.6 mph 27.6 mph N/A   Unknown
7:41 PM 69.8 °F 53.6 °F 56% 29.80 in - South 19.6 mph 29.9 mph N/A   Unknown
7:55 PM 69.6 °F 52.9 °F 55% 29.80 in - South 16.1 mph 24.2 mph N/A   Unknown
8:01 PM 69.8 °F 53.6 °F 56% 29.80 in - South 18.4 mph 24.2 mph N/A   Unknown
8:15 PM 69.1 °F 52.9 °F 56% 29.80 in - South 20.7 mph 26.5 mph N/A   Unknown
8:21 PM 69.8 °F 53.6 °F 56% 29.80 in - South 19.6 mph 26.5 mph N/A   Unknown
8:35 PM 69.4 °F 52.9 °F 56% 29.80 in - South 21.9 mph 27.6 mph N/A   Unknown
8:41 PM 68.0 °F 53.6 °F 60% 29.80 in - South 18.4 mph 26.5 mph N/A   Unknown
8:55 PM 68.9 °F 53.1 °F 57% 29.80 in - South 21.9 mph 28.8 mph N/A   Unknown
9:01 PM 68.0 °F 53.6 °F 60% 29.81 in - South 19.6 mph 28.8 mph N/A   Unknown
9:15 PM 68.5 °F 53.6 °F 59% 29.80 in - South 19.6 mph 25.3 mph N/A   Unknown
9:21 PM 68.0 °F 53.6 °F 60% 29.80 in - South 20.7 mph 27.6 mph N/A   Unknown
9:35 PM 68.2 °F 53.8 °F 60% 29.80 in - South 18.4 mph - N/A   Unknown
9:41 PM 68.0 °F 53.6 °F 60% 29.80 in - South 16.1 mph 25.3 mph N/A   Unknown
9:55 PM 68.2 °F 53.8 °F 60% 29.80 in - South 19.6 mph 24.2 mph N/A   Unknown
10:01 PM 68.0 °F 53.6 °F 60% 29.80 in - South 18.4 mph 27.6 mph N/A   Unknown
10:15 PM 68.0 °F 53.8 °F 60% 29.80 in - South 20.7 mph 25.3 mph N/A   Unknown
10:21 PM 68.0 °F 53.6 °F 60% 29.80 in - South 19.6 mph 25.3 mph N/A   Unknown
10:35 PM 68.0 °F 53.6 °F 60% 29.79 in - South 17.3 mph 28.8 mph N/A   Unknown
10:40 PM 68.0 °F 53.6 °F 60% 29.79 in - SSW 20.7 mph 28.8 mph N/A   Unknown
10:55 PM 67.8 °F 53.2 °F 60% 29.79 in - SSW 19.6 mph 25.3 mph N/A   Unknown
11:01 PM 68.0 °F 53.6 °F 60% 29.79 in - SSW 19.6 mph 26.5 mph N/A   Unknown
11:15 PM 67.5 °F 52.9 °F 59% 29.79 in - SSW 20.7 mph 28.8 mph N/A   Unknown
11:21 PM 68.0 °F 53.6 °F 60% 29.79 in - SSW 19.6 mph 28.8 mph N/A   Unknown
11:35 PM 67.3 °F 52.7 °F 59% 29.79 in - SSW 19.6 mph 24.2 mph N/A   Unknown
11:41 PM 66.2 °F 51.8 °F 60% 29.79 in - SSW 20.7 mph 25.3 mph N/A   Unknown
11:55 PM 66.7 °F 52.9 °F 61% 29.79 in - SSW 20.7 mph 29.9 mph N/A   Unknown